GAOFEN 11-2 (46396 NORAD) Tracking and Keplerian Element Data

This shows tracking and keplerian element data for the satellite.

Feedback or suggestion? Click here.




ElementValue
Catalog46396
NameGAOFEN 11-2
Epoch Orbit251
Epoch Day267.60634912
Epoch Year2020
RAAN19.6599
Inclination97.3307
Eccentricity0.0322847
Argument of Perigee113.1804
Mean Anonmoly255.7414
Mean Motion15.34745251
Decay Rate0.00071934
L11 46396U 20064A 20267.60634912 .00071934 29026-5 34012-3 0 9999
L22 46396 97.3307 19.6599 0322847 113.1804 255.7414 15.34745251 2515

Live tracking and technical data element details for GAOFEN 11-2 (NORAD 46396). GAOFEN 11-2 can be tracked NOW for your location showing map with azimuth and elevation plus other details from your city location.

Track the satellite on the map from your city or location and see movement details for azimuth, elevation, latitude, longitude, range, height, and movement on the map or in text.







IsCatalogInMostPopularTable: catalog: 46396, numindb: 3
Update: records affected: 1



GetName: 46396 GAOFEN 11-2

Hit Count: updated at: Thu, 24 Sep 2020 17:05:08 GMT